Page, AZ

2:19 AM MDT on July 26, 2017 (GMT -0600)
Page Municipal

Weather History for KPGA - April, 2013

Change the Weather History Date:

Wednesday, April 3, 2013

  Actual Average Record
Temperature  
Mean Temperature 59 °F -  
Max Temperature 72 °F 63 °F 84 °F (1959)
Min Temperature 46 °F 39 °F 28 °F (1963)
Degree Days  
Heating Degree Days 6    
Growing Degree Days 9 (Base 50)    
Moisture  
Dew Point 26 °F    
Average Humidity 30    
Maximum Humidity 54    
Minimum Humidity 7    
Precipitation  
Precipitation 0.00 in - - ()
Sea Level Pressure  
Sea Level Pressure 30.01 in    
Wind  
Wind Speed 3 mph (SE)    
Max Wind Speed 7 mph    
Max Gust Speed -    
Visibility 10 miles    
Events      
Averages and records for this station are not official NWS values.
T = Trace of Precipitation, MM = Missing Value Source: NWS Daily Summary

Daily Weather History Graph

Daily Weather History Graph

Search for Another Location

Airport or City:

Trip Planner

Search our weather history database for the weather conditions in past years. The results will help you decide how hot, cold, wet, or windy it might be!

Date:

Astronomy

Apr. 03, 2013 Rise Set
Actual Time 6:08 AM MST 6:50 PM MST
Civil Twilight 5:41 AM MST 7:16 PM MST
Nautical Twilight 5:11 AM MST 7:47 PM MST
Astronomical Twilight 4:39 AM MST 8:19 PM MST
Moon 1:42 AM MST (4/3) 12:15 PM MST (4/3)
Length of Visible Light 13h 34m
Length of Day
12h 42m
Last Quarter, 43% of the Moon is Illuminated
Apr 3
Last Quarter
Apr 10
New
Apr 18
First Quarter
Apr 25
Full
May 2
Last Quarter

Hourly Weather History & Observations

Time (MST) Temp. Dew Point Humidity Pressure Visibility Wind Dir Wind Speed Gust Speed Precip Events Conditions
12:53 AM 50.0 °F 33.1 °F 52% 29.96 in 10.0 mi Calm Calm - N/A   Clear
1:53 AM 48.9 °F 32.0 °F 52% 29.98 in 10.0 mi West 3.5 mph - N/A   Clear
2:53 AM 46.9 °F 30.9 °F 54% 29.98 in 10.0 mi Calm Calm - N/A   Clear
3:53 AM 48.0 °F 30.9 °F 52% 29.99 in 10.0 mi SSW 3.5 mph - N/A   Clear
4:53 AM 48.0 °F 30.9 °F 52% 30.01 in 10.0 mi SSW 3.5 mph - N/A   Clear
5:53 AM 46.9 °F 30.9 °F 54% 30.04 in 10.0 mi Calm Calm - N/A   Clear
6:53 AM 48.0 °F 32.0 °F 54% 30.06 in 10.0 mi Calm Calm - N/A   Clear
7:53 AM 52.0 °F 32.0 °F 47% 30.06 in 10.0 mi WNW 3.5 mph - N/A   Clear
8:53 AM 55.0 °F 32.0 °F 42% 30.08 in 10.0 mi NW 4.6 mph - N/A   Clear
9:53 AM 57.9 °F 30.0 °F 35% 30.07 in 10.0 mi Variable 3.5 mph - N/A   Clear
10:53 AM 62.1 °F 28.9 °F 29% 30.07 in 10.0 mi Variable 3.5 mph - N/A   Clear
11:53 AM 66.0 °F 27.0 °F 23% 30.04 in 10.0 mi NNE 5.8 mph - N/A   Clear
12:53 PM 66.0 °F 25.0 °F 21% 30.03 in 10.0 mi Calm Calm - N/A   Clear
1:53 PM 68.0 °F 23.0 °F 18% 30.01 in 10.0 mi NNE 5.8 mph - N/A   Clear
2:53 PM 71.1 °F 21.0 °F 15% 30.00 in 10.0 mi Variable 3.5 mph - N/A   Clear
3:53 PM 71.1 °F 21.0 °F 15% 29.97 in 10.0 mi East 4.6 mph - N/A   Clear
4:53 PM 72.0 °F 21.0 °F 15% 29.95 in 10.0 mi NE 5.8 mph - N/A   Clear
5:53 PM 71.1 °F 21.0 °F 15% 29.96 in 10.0 mi East 5.8 mph - N/A   Clear
6:53 PM 66.9 °F 21.9 °F 18% 29.95 in 10.0 mi East 4.6 mph - N/A   Clear
7:53 PM 63.0 °F 21.0 °F 20% 29.97 in 10.0 mi SSE 5.8 mph - N/A   Clear
8:53 PM 63.0 °F 19.0 °F 18% 30.00 in 10.0 mi South 4.6 mph - N/A   Clear
9:53 PM 59.0 °F 19.9 °F 22% 30.01 in 10.0 mi Calm Calm - N/A   Clear
10:53 PM 59.0 °F 18.0 °F 20% 30.01 in 10.0 mi SW 6.9 mph - N/A   Clear
11:53 PM 55.0 °F 19.0 °F 24% 30.02 in 10.0 mi Calm Calm - N/A   Clear